Showing default

GLOBALSTAR M048, 25872

Orbit data source: Space-Track

GLOBALSTAR M048, 25872 is a payload satellite owned by Globalstar (US) in LEO that was launched on Sun, 25 Jul 1999 UTC via a DELTA 7420-10C launch vehicle from the Air Force Eastern Test Range (AFETR). Payload-class satellites include a variety of spacecraft equipped with specific instruments for various scientific and technological missions. These include communications satellites like Starlink; space stations such as the ISS; scientific satellites like the Hubble; Earth observation satellites from companies like Planet Labs, Umbra, and HawkEye 360; GPS; miniature CubeSats for education and research; and military/defense satellites.

Loading next visibility...
Identifier
25872, 1999-041A
Orbit
LEO
Country
Flag of USUS / GLOB
Related business
Manufacturer
SS/Loral
Mission
Non-operational Commercial Communications
Bus & Motor
LS-400, LS-400 AOCS
Mass
450 kg wet, 380 kg dry
Launch date (UTC)
1999-07-25 (27 years ago)
Launch vehicle
DELTA 7420-10C
Launch site
Air Force Eastern Test Range (AFETR)
Object type
Payload
Rocket body
Debris
Shape & HBR
Box + 2 Pan, 6.0 m
Radar Cross Section
5.587 m², Large (>1 m²)

Expand to show TLE details & history
Last TLE update: 16 hours ago

TLE from 16 hours ago
0 GLOBALSTAR M048
1 25872U 99041A   26125.88502421 -.00000063  00000-0  18828-3 0  9993
2 25872  51.9380 289.9298 0013147  27.6228 142.1889 11.33863659161581
Epoch: 2026-05-05T21:14Z
TLE epoch observation values (Epoch: 2026-05-05T21:14:26.091Z)
Latitude
7.91038°
Longitude
-78.64943°
Altitude
1,999.925 km
Speed
6.896 km/s
True Right ascension
06h 54m 51s
True Declination
7° 52' 14"
Sunlit
Object was in daylight at epoch
Visualization orbit readout
Latitude
Unknown
Longitude
Unknown
Altitude
Unknown
Speed
Unknown
Apparent Right ascension
Unknown
Apparent Declination
Unknown
Sunlit
N/A
Visualization observer readout
Local Sidereal Time
20:53:15
Azimuth
Unknown
Elevation
Unknown
Doppler factor
Unknown
Orbital elements
Apogee altitude
2,002.647 km
Perigee altitude
1,980.639 km
Semi-major axis
8,369.78 km
Eccentricity
0.00131
Inclination
51.938°
RAAN
289.9298°
Arg. of periapsis
27.6228°
True anomaly
142.28114°
Mean anomaly
142.1889°
Eccentric anomaly
142.23503°
Mean motion
2.83447 °/min
Orbital period
127.01 mins
BSTAR
0.00018828
Loading maneuver chart data...
Computing Atmospheric mass density...
Loading historical data...
Loading historical data...
Loading historical data...
Loading historical data...
Loading historical data...
Loading historical data...
Loading historical data...
Other satellites on launch #41 in the year 1999 (1999-07-25 UTC)

Documentation

Showing up to 5 results
|